Regional Weather Roundup
Issued by NWS Upton, NY

Current Version | Previous Version | Graphics & Text | Print | Product List | Glossary Off
Versions: 1 2 3 4 5 6 7 8 9 10 11 12 13 14 15 16 17 18 19 20 21 22 23 24 25 26 27 28 29 30 31 32 33 34 35 36 37 38 39 40 41 42 43 44 45 46 47 48 49 50
378 ASUS41 KOKX 221008 RWROKX REGIONAL WEATHER ROUNDUP NATIONAL WEATHER SERVICE NEW YORK NY 500 AM EST WED FEB 22 2017 NOTE: "FAIR" INDICATES FEW OR NO CLOUDS BELOW 12,000 FEET WITH NO SIGNIFICANT WEATHER AND/OR OBSTRUCTIONS TO VISIBILITY. NYZ071-072-176-178-NJZ106-104-221100- NEW YORK CITY METRO AREA CITY SKY/WX TMP DP RH WIND PRES REMARKS Central Park CLOUDY 43 34 70 W3 30.08F Wall St Helipt NOT AVBL LaGuardia APRT CLOUDY 45 35 68 SW7 30.05F Kennedy INTL CLOUDY 39 37 92 SW7 30.08F WCI 34 Breezy Point N/A 39 N/A N/A SW3 N/A Newark/Liberty CLOUDY 41 34 76 S6 30.06F Teterboro CLOUDY 42 35 76 S5 30.05 $$ NYZ177-179-078>081-221100- LONG ISLAND NEW YORK CITY SKY/WX TMP DP RH WIND PRES REMARKS Jones Beach N/A 41 N/A N/A SW2 N/A Matinecock PT N/A 43 N/A N/A SW7 N/A Farmingdale CLOUDY 42 38 85 SW5 30.06 MacArthur/ISP CLOUDY 42 39 89 SW8 30.05 Shirley CLOUDY 42 39 89 S5 30.07 Westhampton CLOUDY 42 38 85 SW3 30.08 Southampton NOT AVBL Bridgehampton NOT AVBL East Hampton CLOUDY 41 38 87 SW6 30.06F Montauk N/A 43 39 86 S8 30.07F $$ NYZ052-065-067-221100- HUDSON VALLEY CITY SKY/WX TMP DP RH WIND PRES REMARKS White Plains CLOUDY 40 33 76 CALM 30.03 Newburgh CLOUDY 41 34 75 CALM 30.03F Montgomery CLOUDY 38 33 82 CALM 30.01 Poughkeepsie PTCLDY 36 32 85 SE3 30.02 Albany CLOUDY 39 29 67 S6 30.01S WCI 35 $$ NJZ001-105-106-008-010-013-015-019>022-104-221100- NEW JERSEY CITY SKY/WX TMP DP RH WIND PRES REMARKS Newark/Liberty CLOUDY 41 34 76 S6 30.06F Teterboro CLOUDY 42 35 76 S5 30.05 Caldwell CLOUDY 41 33 73 SW3 30.06 Somerville PTCLDY 38 32 79 CALM 30.04 Linden NOT AVBL Sussex CLOUDY 41 34 76 CALM 30.02 Andover N/A 40 33 76 CALM 30.03S Trenton CLOUDY 40 35 83 CALM 30.05 Millville CLOUDY 41 39 93 CALM 30.05 Atlantic City CLOUDY 43 37 79 S3 30.06S Wrightstown CLOUDY 38 35 90 CALM 30.05R Toms River MOCLDY 35 33 92 CALM 30.08 Belmar CLOUDY 39 36 89 CALM 30.09 $$ PAZ047>061-062-071-221100- EASTERN PENNSYLVANIA CITY SKY/WX TMP DP RH WIND PRES REMARKS Philadelphia CLOUDY 41 36 82 CALM 30.07R Allentown CLOUDY 41 33 73 CALM 30.04 Scranton CLOUDY 43 33 68 CALM 29.99 $$ CTZ002-004>006-009-010-012-RIZ004-006-007-MAZ004-011-015-221100- SOUTHERN NEW ENGLAND IN CT CITY SKY/WX TMP DP RH WIND PRES REMARKS Bradley INTL MOCLDY 36 32 85 S6 30.03F WCI 31 Hartford PTCLDY 38 34 85 SE5 30.04F WCI 34 Danbury CLOUDY 37 33 85 SW3 30.03 Wtrbury/Oxford CLOUDY 37 30 75 SW5 30.03F WCI 34 Bridgeport MOCLDY 41 35 79 SW6 30.06 Meriden CLOUDY 40 34 79 SE5 30.04F New Haven CLOUDY 39 36 89 S3 30.06 Chester CLOUDY 39 36 87 SW7 30.04S WCI 34 Groton CLOUDY 40 37 89 SW5 30.06F Wilimantic CLOUDY 37 32 82 CALM 30.05S IN RI CITY SKY/WX TMP DP RH WIND PRES REMARKS Providence CLOUDY 38 34 85 S5 30.06F WCI 34 Block Island CLOUDY 42 38 85 SW14 30.06F Westerly CLOUDY 41 36 82 SW3 30.06F IN MA CITY SKY/WX TMP DP RH WIND PRES REMARKS Boston CLOUDY 39 33 79 SW12 30.04S WCI 32 Worcester CLOUDY 34 30 85 SW8 30.00R WCI 27 Westfield CLOUDY 34 31 88 CALM 30.02S Provincetown CLOUDY 38 33 82 S12 30.05F WCI 30 Nantucket CLOUDY 38 34 85 S7 30.08F WCI 33 $$ ANZ330-335-338-340-345-350-353-355-221100- COASTAL MARINE OBSERVATIONS STATION/POSITION TIME SKY/WX TEMP WIND PRES VSBY WAVE AIR SEA DIR/SP/G HT/PER (UTC) (F) (DEG/KT/KT) (MB) (MI) (FT/S) NY HARB ENTRANCE 0950 42 42 240/ 2/ 2 1018.2 2/ 8 20 S FIRE ISLAND 0950 43 43 200/ 2/ 4 1018.4 2/10 GREAT SOUTH BAY NOT AVBL 23 SSW MONTAUK P 0850 45 46 1019.0 3/ 4 15 E BARNEGAT LI 0930 43 N/A 2/ 6 HUDSON CANYON 0950 49 1018.9 2/ 8 KINGS POINT 0942 42 39 1017.3 EXECUTION ROCKS NOT AVBL CENTRAL LI SOUND 0930 40 210/ 6/ 6 N/A 0 EASTERN LI SOUND NOT AVBL ROBBINS REEF 0942 41 180/ 6/ 7 1018.2 $$ >>>>>>>>>>>>>>>>>>>>>>>>>>>> KEY <<<<<<<<<<<<<<<<<<<<<<<<<<< > < > SKY/WX - Sky Condition/Present Weather < > TMP - Temperature in Fahrenheit < > DP - Dew Point in Fahrenheit < > RH - Relative Humidity in Percent < > WIND - Direction (from) and Speed in MPH < > PRES - Mean Sea Level Pressure (inches of Hg) < > WCI - Wind Chill Index < > VSB - VISIBILITY IN MILES < > HX - HEAT INDEX < > TC - TEMPERATURE IN CELSIUS < > VRB - VARIABLE WIND DIRECTION < > < >>>>>>>>>>>>>>>>>>>>>>>>>>>> KEY <<<<<<<<<<<<<<<<<<<<<<<<<<<

USA.gov is the U.S. government's official web portal to all federal, state and local government web resources and services.